QPF
0.00 0.01 0.02 0.06 0.11 0.13 0.12 0.08 0.05 0.04 0.03 0.01 0.01 0.03 0.06 0.07 0.11 0.12 0.15 0.19 0.15 0.09 0.07 0.07 0.11 0.10 0.08 0.09 0.09 0.09 0.08 0.09 0.08 0.07 0.06 0.07 0.07 0.05 0.05 0.04 0.04 0.05 0.04 0.03 0.02 0.02 0.02 0.02 0.01
0.01 0.01 0.03 0.07 0.12 0.13 0.12 0.09 0.08 0.04 0.01 0.01 0.02 0.03 0.04 0.03 0.07 0.12 0.18 0.17 0.12 0.08 0.06 0.06 0.08 0.08 0.07 0.08 0.07 0.05 0.05 0.05 0.05 0.04 0.03 0.03 0.04 0.01 0.01 0.01 0.02 0.02 0.02 0.02 0.01 0.01 0.01 0.01 0.02
0.00 0.01 0.03 0.07 0.10 0.12 0.11 0.10 0.06 0.03 0.02 0.02 0.02 0.01 0.02 0.05 0.09 0.16 0.18 0.10 0.07 0.06 0.06 0.08 0.08 0.07 0.07 0.07 0.06 0.05 0.05 0.03 0.01 0.02 0.03 0.02 0.02 0.01 0.01 0.00 0.00 0.00 0.01 0.01 0.01 0.01 0.01 0.00 0.01
0.01 0.02 0.03 0.06 0.09 0.10 0.07 0.05 0.05 0.05 0.03 0.02 0.02 0.04 0.04 0.05 0.10 0.16 0.13 0.09 0.08 0.07 0.08 0.11 0.10 0.08 0.08 0.08 0.07 0.05 0.03 0.01 0.01 0.02 0.02 0.01 0.01 0.01 0.02 0.01 0.00 0.00 0.00 0.00 0.00 0.00 0.00 0.00 0.00
0.01 0.03 0.05 0.07 0.08 0.07 0.03 0.02 0.02 0.03 0.03 0.02 0.02 0.05 0.05 0.07 0.09 0.11 0.12 0.09 0.08 0.09 0.11 0.09 0.09 0.07 0.09 0.07 0.04 0.02 0.02 0.01 0.01 0.02 0.01 0.01 0.01 0.01 0.00 0.00 0.00 0.00 0.00 0.00 0.00 0.00 0.00 0.00 0.00
0.02 0.03 0.07 0.09 0.07 0.07 0.04 0.02 0.02 0.02 0.02 0.02 0.02 0.05 0.06 0.09 0.11 0.10 0.11 0.09 0.09 0.09 0.10 0.07 0.07 0.05 0.04 0.03 0.02 0.02 0.01 0.01 0.01 0.01 0.01 0.00 0.01 0.00 0.00 0.00 0.00 0.00 0.00 0.00 0.00 0.00 0.00 0.00 0.00
0.02 0.04 0.06 0.08 0.07 0.08 0.05 0.02 0.01 0.02 0.04 0.03 0.02 0.04 0.07 0.09 0.09 0.05 0.04 0.06 0.09 0.09 0.08 0.06 0.05 0.04 0.02 0.02 0.02 0.01 0.01 0.01 0.00 0.00 0.00 0.00 0.00 0.00 0.00 0.00 0.00 0.00 0.00 0.00 0.00 0.00 0.00 0.00 0.00
0.01 0.04 0.05 0.07 0.07 0.08 0.04 0.01 0.01 0.02 0.04 0.02 0.02 0.04 0.07 0.07 0.05 0.02 0.02 0.04 0.07 0.08 0.08 0.06 0.05 0.05 0.03 0.02 0.02 0.02 0.01 0.01 0.00 0.00 0.00 0.00 0.00 0.00 0.00 0.00 0.00 0.00 0.00 0.00 0.00 0.00 0.00 0.01 0.00
0.01 0.04 0.07 0.07 0.07 0.08 0.03 0.01 0.01 0.01 0.01 0.02 0.02 0.03 0.03 0.03 0.03 0.03 0.03 0.04 0.08 0.06 0.05 0.05 0.05 0.05 0.03 0.02 0.02 0.02 0.01 0.00 0.01 0.00 0.00 0.00 0.00 0.01 0.00 0.00 0.00 0.00 0.00 0.00 0.00 0.00 0.00 0.00 0.00
0.01 0.05 0.06 0.04 0.03 0.05 0.03 0.02 0.02 0.02 0.03 0.03 0.04 0.03 0.02 0.03 0.04 0.02 0.03 0.05 0.05 0.05 0.03 0.03 0.02 0.02 0.01 0.01 0.01 0.01 0.00 0.00 0.01 0.00 0.00 0.00 0.00 0.00 0.00 0.00 0.00 0.00 0.00 0.00 0.00 0.00 0.00 0.00 0.00
0.01 0.03 0.04 0.03 0.01 0.01 0.03 0.02 0.02 0.03 0.04 0.02 0.03 0.03 0.03 0.04 0.02 0.02 0.02 0.03 0.04 0.03 0.03 0.02 0.02 0.01 0.01 0.00 0.00 0.00 0.00 0.00 0.00 0.00 0.00 0.00 0.00 0.00 0.00 0.00 0.00 0.00 0.00 0.00 0.00 0.00 0.00 0.00 0.00
0.01 0.01 0.02 0.02 0.00 0.01 0.03 0.02 0.02 0.05 0.05 0.01 0.01 0.02 0.02 0.02 0.02 0.01 0.02 0.02 0.04 0.04 0.04 0.03 0.02 0.01 0.00 0.00 0.00 0.00 0.00 0.00 0.00 0.00 0.00 0.00 0.00 0.00 0.00 0.00 0.00 0.00 0.00 0.00 0.00 0.00 0.00 0.00 0.00
0.01 0.01 0.00 0.01 0.00 0.00 0.03 0.05 0.02 0.04 0.03 0.01 0.01 0.02 0.01 0.02 0.01 0.01 0.01 0.02 0.03 0.05 0.06 0.04 0.02 0.00 0.00 0.00 0.00 0.00 0.00 0.00 0.00 0.00 0.00 0.00 0.00 0.00 0.00 0.00 0.00 0.00 0.00 0.00 0.00 0.00 0.00 0.00 0.00
0.00 0.01 0.00 0.01 0.02 0.01 0.04 0.05 0.02 0.04 0.03 0.01 0.01 0.01 0.01 0.01 0.01 0.01 0.01 0.01 0.03 0.05 0.07 0.06 0.03 0.01 0.00 0.00 0.00 0.00 0.00 0.00 0.00 0.00 0.00 0.00 0.00 0.00 0.00 0.00 0.00 0.00 0.00 0.00 0.00 0.00 0.00 0.00 0.00
0.01 0.03 0.03 0.04 0.06 0.05 0.08 0.06 0.04 0.04 0.03 0.01 0.01 0.00 0.01 0.01 0.01 0.02 0.01 0.01 0.02 0.03 0.05 0.05 0.03 0.03 0.01 0.00 0.00 0.00 0.00 0.00 0.00 0.00 0.00 0.00 0.00 0.00 0.00 0.00 0.00 0.00 0.00 0.00 0.00 0.00 0.00 0.00 0.00
0.03 0.05 0.05 0.04 0.04 0.02 0.05 0.07 0.05 0.05 0.04 0.02 0.01 0.01 0.02 0.01 0.01 0.01 0.01 0.01 0.01 0.02 0.03 0.03 0.02 0.02 0.01 0.00 0.00 0.00 0.00 0.00 0.00 0.00 0.00 0.00 0.00 0.00 0.00 0.00 0.00 0.00 0.00 0.00 0.00 0.00 0.00 0.00 0.00
0.05 0.07 0.06 0.04 0.02 0.01 0.03 0.06 0.06 0.04 0.02 0.01 0.01 0.01 0.03 0.02 0.01 0.01 0.02 0.01 0.00 0.01 0.01 0.01 0.02 0.01 0.02 0.01 0.00 0.00 0.01 0.01 0.00 0.00 0.00 0.00 0.00 0.00 0.00 0.00 0.00 0.00 0.00 0.00 0.00 0.00 0.00 0.01 0.01
0.07 0.06 0.05 0.03 0.02 0.01 0.01 0.02 0.03 0.02 0.01 0.01 0.02 0.02 0.02 0.01 0.01 0.01 0.02 0.01 0.00 0.00 0.00 0.01 0.01 0.01 0.02 0.02 0.02 0.01 0.01 0.00 0.00 0.00 0.00 0.00 0.00 0.00 0.00 0.00 0.00 0.00 0.01 0.01 0.00 0.00 0.01 0.01 0.01
0.02 0.03 0.05 0.03 0.01 0.01 0.01 0.02 0.01 0.01 0.00 0.01 0.01 0.01 0.01 0.01 0.00 0.01 0.01 0.01 0.00 0.00 0.00 0.00 0.01 0.01 0.01 0.01 0.02 0.01 0.01 0.00 0.00 0.00 0.00 0.00 0.00 0.00 0.00 0.01 0.01 0.01 0.02 0.02 0.01 0.01 0.02 0.01 0.01
0.01 0.03 0.04 0.04 0.01 0.01 0.02 0.02 0.01 0.01 0.00 0.00 0.01 0.01 0.00 0.00 0.00 0.01 0.01 0.01 0.01 0.00 0.00 0.00 0.00 0.01 0.01 0.01 0.02 0.02 0.01 0.00 0.00 0.00 0.00 0.00 0.00 0.00 0.00 0.01 0.01 0.01 0.02 0.02 0.01 0.01 0.02 0.02 0.01
0.01 0.03 0.04 0.04 0.03 0.02 0.03 0.03 0.01 0.01 0.00 0.00 0.00 0.00 0.00 0.00 0.00 0.00 0.00 0.00 0.01 0.01 0.00 0.00 0.01 0.01 0.00 0.01 0.02 0.02 0.02 0.00 0.00 0.00 0.00 0.01 0.00 0.00 0.00 0.01 0.01 0.01 0.02 0.02 0.01 0.02 0.03 0.03 0.02
0.04 0.02 0.02 0.03 0.05 0.05 0.03 0.06 0.02 0.01 0.01 0.01 0.01 0.01 0.00 0.00 0.00 0.00 0.00 0.00 0.01 0.00 0.00 0.00 0.01 0.01 0.00 0.00 0.02 0.03 0.02 0.01 0.00 0.00 0.00 0.00 0.00 0.00 0.01 0.01 0.01 0.01 0.02 0.02 0.02 0.02 0.02 0.03 0.04
0.03 0.01 0.01 0.02 0.04 0.05 0.03 0.05 0.04 0.00 0.01 0.01 0.01 0.01 0.00 0.00 0.00 0.00 0.00 0.00 0.01 0.00 0.00 0.00 0.01 0.01 0.01 0.01 0.02 0.02 0.02 0.01 0.00 0.00 0.00 0.00 0.00 0.00 0.01 0.01 0.01 0.02 0.02 0.02 0.01 0.02 0.02 0.02 0.04
0.01 0.01 0.01 0.03 0.05 0.06 0.02 0.04 0.04 0.01 0.00 0.01 0.01 0.01 0.00 0.00 0.00 0.00 0.00 0.00 0.01 0.00 0.00 0.01 0.01 0.01 0.01 0.02 0.01 0.01 0.02 0.01 0.00 0.00 0.00 0.00 0.00 0.00 0.00 0.00 0.00 0.00 0.01 0.01 0.01 0.03 0.02 0.03 0.02
0.03 0.05 0.07 0.09 0.09 0.07 0.02 0.02 0.04 0.01 0.00 0.00 0.00 0.01 0.00 0.01 0.00 0.00 0.00 0.00 0.00 0.00 0.00 0.01 0.02 0.01 0.02 0.02 0.02 0.01 0.01 0.00 0.00 0.00 0.00 0.00 0.00 0.00 0.00 0.00 0.00 0.00 0.00 0.00 0.01 0.01 0.01 0.01 0.01
0.03 0.04 0.08 0.11 0.09 0.05 0.02 0.02 0.02 0.00 0.00 0.00 0.00 0.00 0.00 0.01 0.00 0.00 0.01 0.00 0.00 0.00 0.00 0.00 0.01 0.01 0.01 0.02 0.02 0.01 0.01 0.00 0.00 0.00 0.00 0.00 0.00 0.00 0.00 0.00 0.00 0.00 0.00 0.00 0.00 0.01 0.01 0.01 0.01
0.01 0.02 0.03 0.05 0.05 0.04 0.03 0.02 0.02 0.00 0.00 0.00 0.01 0.01 0.01 0.01 0.01 0.01 0.01 0.01 0.01 0.01 0.00 0.00 0.01 0.01 0.01 0.01 0.01 0.01 0.01 0.00 0.00 0.00 0.00 0.00 0.00 0.00 0.00 0.00 0.00 0.00 0.00 0.00 0.01 0.01 0.01 0.01 0.01
0.01 0.01 0.01 0.05 0.07 0.06 0.03 0.02 0.02 0.02 0.01 0.01 0.00 0.00 0.01 0.01 0.02 0.01 0.01 0.01 0.01 0.00 0.00 0.00 0.01 0.01 0.00 0.00 0.00 0.00 0.00 0.00 0.00 0.00 0.00 0.00 0.00 0.00 0.00 0.00 0.00 0.00 0.00 0.00 0.01 0.02 0.01 0.01 0.01
0.00 0.00 0.01 0.02 0.02 0.04 0.05 0.03 0.01 0.01 0.00 0.00 0.00 0.00 0.01 0.01 0.01 0.01 0.01 0.00 0.00 0.00 0.00 0.00 0.00 0.00 0.00 0.00 0.00 0.00 0.00 0.00 0.00 0.00 0.00 0.00 0.00 0.00 0.00 0.00 0.00 0.00 0.00 0.01 0.01 0.01 0.00 0.01 0.01
0.00 0.00 0.00 0.02 0.01 0.01 0.02 0.02 0.00 0.00 0.00 0.00 0.00 0.00 0.01 0.01 0.00 0.00 0.00 0.00 0.00 0.00 0.00 0.00 0.00 0.00 0.00 0.00 0.00 0.00 0.00 0.00 0.00 0.00 0.00 0.00 0.00 0.00 0.00 0.00 0.00 0.00 0.00 0.00 0.00 0.00 0.00 0.00 0.00
MSLP
1007.24 1007.95 1008.83 1009.77 1010.63 1011.32 1011.79 1012.05 1012.17 1012.21 1012.29 1012.47 1012.79 1013.24 1013.76 1014.26 1014.68 1014.94 1015.02 1014.93 1014.72 1014.45 1014.20 1014.02 1013.95 1013.96 1014.04 1014.13 1014.20 1014.20 1014.15 1014.06 1013.96 1013.89 1013.90 1013.98 1014.14 1014.33 1014.54 1014.71 1014.82 1014.87 1014.88 1014.86 1014.86 1014.88 1014.93 1015.02 1015.11
1007.67 1008.53 1009.48 1010.40 1011.16 1011.69 1011.98 1012.07 1012.03 1011.99 1012.03 1012.23 1012.60 1013.11 1013.68 1014.22 1014.65 1014.91 1014.98 1014.89 1014.71 1014.50 1014.32 1014.23 1014.24 1014.33 1014.45 1014.56 1014.62 1014.61 1014.53 1014.42 1014.31 1014.25 1014.26 1014.34 1014.49 1014.67 1014.83 1014.96 1015.03 1015.05 1015.04 1015.01 1015.00 1015.03 1015.08 1015.15 1015.21
1008.23 1009.20 1010.18 1011.05 1011.68 1012.05 1012.16 1012.08 1011.93 1011.82 1011.85 1012.07 1012.48 1013.02 1013.62 1014.16 1014.58 1014.81 1014.86 1014.78 1014.62 1014.47 1014.37 1014.38 1014.48 1014.64 1014.82 1014.96 1015.03 1015.02 1014.94 1014.82 1014.70 1014.64 1014.64 1014.70 1014.82 1014.95 1015.07 1015.14 1015.16 1015.15 1015.11 1015.09 1015.09 1015.12 1015.18 1015.23 1015.26
1008.88 1009.91 1010.88 1011.66 1012.16 1012.37 1012.32 1012.13 1011.90 1011.76 1011.80 1012.05 1012.50 1013.06 1013.65 1014.16 1014.53 1014.71 1014.73 1014.63 1014.50 1014.39 1014.37 1014.47 1014.65 1014.89 1015.12 1015.29 1015.38 1015.38 1015.30 1015.18 1015.07 1015.01 1015.00 1015.04 1015.11 1015.19 1015.25 1015.26 1015.24 1015.20 1015.15 1015.13 1015.15 1015.20 1015.25 1015.29 1015.28
1009.53 1010.57 1011.49 1012.16 1012.53 1012.60 1012.46 1012.19 1011.94 1011.82 1011.91 1012.21 1012.69 1013.25 1013.81 1014.26 1014.55 1014.66 1014.62 1014.50 1014.37 1014.31 1014.35 1014.51 1014.77 1015.06 1015.33 1015.53 1015.63 1015.64 1015.57 1015.47 1015.37 1015.31 1015.30 1015.32 1015.36 1015.39 1015.40 1015.37 1015.31 1015.24 1015.20 1015.19 1015.21 1015.27 1015.32 1015.34 1015.29
1010.12 1011.12 1011.94 1012.50 1012.75 1012.74 1012.53 1012.26 1012.05 1012.01 1012.17 1012.53 1013.03 1013.59 1014.10 1014.47 1014.67 1014.69 1014.58 1014.42 1014.29 1014.25 1014.33 1014.54 1014.83 1015.15 1015.44 1015.65 1015.76 1015.77 1015.72 1015.63 1015.55 1015.51 1015.50 1015.52 1015.54 1015.55 1015.52 1015.46 1015.38 1015.31 1015.26 1015.25 1015.28 1015.33 1015.37 1015.36 1015.28
1010.57 1011.48 1012.20 1012.64 1012.81 1012.75 1012.55 1012.33 1012.21 1012.27 1012.53 1012.96 1013.50 1014.03 1014.47 1014.76 1014.86 1014.79 1014.62 1014.42 1014.27 1014.24 1014.34 1014.56 1014.86 1015.18 1015.46 1015.65 1015.75 1015.76 1015.72 1015.65 1015.60 1015.58 1015.60 1015.63 1015.65 1015.65 1015.61 1015.54 1015.45 1015.38 1015.33 1015.32 1015.33 1015.36 1015.37 1015.32 1015.21
1010.85 1011.66 1012.27 1012.62 1012.73 1012.66 1012.52 1012.40 1012.41 1012.59 1012.96 1013.45 1014.00 1014.50 1014.88 1015.07 1015.07 1014.93 1014.70 1014.47 1014.31 1014.28 1014.38 1014.60 1014.89 1015.18 1015.42 1015.58 1015.65 1015.65 1015.60 1015.56 1015.54 1015.55 1015.60 1015.65 1015.69 1015.70 1015.67 1015.60 1015.51 1015.43 1015.38 1015.35 1015.34 1015.33 1015.30 1015.22 1015.07
1010.99 1011.70 1012.20 1012.48 1012.58 1012.55 1012.49 1012.50 1012.64 1012.95 1013.40 1013.94 1014.48 1014.93 1015.23 1015.33 1015.26 1015.05 1014.78 1014.54 1014.39 1014.36 1014.46 1014.66 1014.92 1015.16 1015.35 1015.46 1015.49 1015.47 1015.43 1015.40 1015.40 1015.45 1015.53 1015.62 1015.68 1015.71 1015.69 1015.63 1015.55 1015.46 1015.39 1015.33 1015.29 1015.23 1015.16 1015.03 1014.87
1011.05 1011.67 1012.09 1012.34 1012.44 1012.48 1012.52 1012.66 1012.92 1013.32 1013.83 1014.38 1014.88 1015.26 1015.47 1015.49 1015.35 1015.11 1014.84 1014.61 1014.47 1014.46 1014.57 1014.75 1014.97 1015.16 1015.30 1015.36 1015.36 1015.32 1015.27 1015.25 1015.27 1015.35 1015.45 1015.56 1015.65 1015.69 1015.69 1015.64 1015.55 1015.46 1015.36 1015.27 1015.18 1015.09 1014.96 1014.81 1014.63
1011.14 1011.68 1012.05 1012.29 1012.43 1012.54 1012.68 1012.92 1013.27 1013.73 1014.25 1014.75 1015.17 1015.46 1015.57 1015.52 1015.33 1015.08 1014.82 1014.63 1014.54 1014.56 1014.68 1014.86 1015.05 1015.21 1015.30 1015.33 1015.30 1015.24 1015.19 1015.17 1015.21 1015.30 1015.42 1015.54 1015.64 1015.69 1015.70 1015.65 1015.56 1015.45 1015.33 1015.21 1015.08 1014.94 1014.78 1014.61 1014.43
1011.34 1011.82 1012.18 1012.42 1012.60 1012.79 1013.02 1013.33 1013.72 1014.18 1014.64 1015.05 1015.36 1015.53 1015.54 1015.42 1015.20 1014.96 1014.74 1014.60 1014.57 1014.65 1014.80 1014.99 1015.17 1015.31 1015.39 1015.40 1015.36 1015.30 1015.25 1015.24 1015.28 1015.37 1015.48 1015.60 1015.69 1015.75 1015.75 1015.70 1015.60 1015.48 1015.35 1015.19 1015.04 1014.87 1014.69 1014.51 1014.34
1011.72 1012.18 1012.52 1012.78 1013.01 1013.25 1013.54 1013.88 1014.26 1014.66 1015.02 1015.30 1015.47 1015.50 1015.41 1015.23 1015.00 1014.78 1014.62 1014.56 1014.60 1014.74 1014.93 1015.15 1015.35 1015.49 1015.57 1015.58 1015.56 1015.51 1015.47 1015.47 1015.50 1015.58 1015.67 1015.77 1015.85 1015.88 1015.88 1015.82 1015.73 1015.60 1015.45 1015.29 1015.11 1014.93 1014.74 1014.57 1014.42
1012.32 1012.75 1013.09 1013.37 1013.63 1013.91 1014.21 1014.54 1014.87 1015.16 1015.39 1015.51 1015.52 1015.43 1015.25 1015.02 1014.80 1014.62 1014.54 1014.55 1014.66 1014.86 1015.10 1015.35 1015.57 1015.73 1015.84 1015.88 1015.88 1015.86 1015.85 1015.85 1015.88 1015.93 1016.00 1016.06 1016.11 1016.13 1016.11 1016.05 1015.96 1015.83 1015.69 1015.52 1015.35 1015.17 1014.99 1014.83 1014.71
1013.09 1013.49 1013.82 1014.11 1014.39 1014.68 1014.98 1015.26 1015.49 1015.66 1015.73 1015.70 1015.57 1015.36 1015.12 1014.87 1014.68 1014.56 1014.55 1014.64 1014.81 1015.06 1015.33 1015.60 1015.84 1016.03 1016.16 1016.25 1016.29 1016.31 1016.32 1016.33 1016.35 1016.38 1016.42 1016.44 1016.46 1016.46 1016.43 1016.37 1016.29 1016.18 1016.05 1015.90 1015.74 1015.57 1015.42 1015.28 1015.18
1013.95 1014.32 1014.63 1014.92 1015.21 1015.49 1015.74 1015.95 1016.08 1016.12 1016.05 1015.87 1015.63 1015.35 1015.08 1014.85 1014.70 1014.66 1014.72 1014.87 1015.09 1015.36 1015.64 1015.92 1016.16 1016.36 1016.52 1016.64 1016.73 1016.78 1016.82 1016.85 1016.86 1016.87 1016.87 1016.86 1016.85 1016.83 1016.80 1016.75 1016.69 1016.60 1016.50 1016.37 1016.23 1016.09 1015.96 1015.85 1015.76
1014.78 1015.12 1015.42 1015.71 1015.99 1016.24 1016.45 1016.57 1016.60 1016.50 1016.31 1016.03 1015.71 1015.40 1015.14 1014.97 1014.90 1014.94 1015.07 1015.27 1015.52 1015.78 1016.04 1016.29 1016.51 1016.70 1016.87 1017.02 1017.14 1017.23 1017.29 1017.32 1017.33 1017.32 1017.30 1017.26 1017.23 1017.21 1017.18 1017.15 1017.11 1017.06 1016.98 1016.88 1016.77 1016.65 1016.54 1016.45 1016.39
1015.50 1015.82 1016.11 1016.40 1016.67 1016.90 1017.05 1017.09 1017.00 1016.80 1016.50 1016.15 1015.80 1015.50 1015.30 1015.22 1015.25 1015.38 1015.59 1015.82 1016.07 1016.30 1016.51 1016.70 1016.87 1017.03 1017.19 1017.34 1017.48 1017.59 1017.67 1017.72 1017.72 1017.70 1017.65 1017.60 1017.57 1017.54 1017.53 1017.52 1017.51 1017.49 1017.44 1017.36 1017.27 1017.17 1017.08 1017.01 1016.96
1016.05 1016.36 1016.67 1016.98 1017.24 1017.44 1017.53 1017.48 1017.29 1016.99 1016.60 1016.21 1015.86 1015.62 1015.50 1015.53 1015.68 1015.92 1016.19 1016.45 1016.69 1016.87 1017.01 1017.11 1017.21 1017.32 1017.44 1017.58 1017.73 1017.86 1017.95 1018.00 1018.01 1017.97 1017.92 1017.87 1017.83 1017.81 1017.82 1017.84 1017.86 1017.86 1017.84 1017.78 1017.70 1017.61 1017.53 1017.47 1017.43
1016.41 1016.76 1017.11 1017.44 1017.72 1017.89 1017.92 1017.78 1017.49 1017.08 1016.62 1016.19 1015.86 1015.68 1015.67 1015.82 1016.10 1016.44 1016.78 1017.07 1017.28 1017.41 1017.46 1017.49 1017.50 1017.55 1017.63 1017.75 1017.90 1018.03 1018.14 1018.20 1018.20 1018.17 1018.11 1018.06 1018.03 1018.03 1018.06 1018.11 1018.16 1018.18 1018.17 1018.12 1018.04 1017.95 1017.87 1017.82 1017.79
1016.61 1017.03 1017.46 1017.85 1018.14 1018.29 1018.25 1018.01 1017.60 1017.08 1016.55 1016.08 1015.76 1015.64 1015.72 1016.00 1016.39 1016.83 1017.24 1017.56 1017.76 1017.84 1017.83 1017.77 1017.72 1017.71 1017.76 1017.86 1018.01 1018.15 1018.27 1018.34 1018.35 1018.32 1018.27 1018.23 1018.21 1018.23 1018.28 1018.35 1018.42 1018.46 1018.46 1018.41 1018.32 1018.22 1018.14 1018.08 1018.07
1016.71 1017.23 1017.76 1018.22 1018.54 1018.66 1018.55 1018.20 1017.67 1017.02 1016.39 1015.86 1015.53 1015.45 1015.62 1015.99 1016.49 1017.02 1017.49 1017.85 1018.05 1018.10 1018.05 1017.94 1017.85 1017.80 1017.84 1017.94 1018.10 1018.26 1018.40 1018.48 1018.51 1018.49 1018.45 1018.41 1018.41 1018.44 1018.52 1018.61 1018.70 1018.75 1018.75 1018.70 1018.61 1018.50 1018.40 1018.34 1018.32
1016.76 1017.41 1018.04 1018.57 1018.92 1019.02 1018.82 1018.36 1017.69 1016.91 1016.16 1015.56 1015.20 1015.13 1015.35 1015.79 1016.37 1016.98 1017.51 1017.90 1018.12 1018.18 1018.12 1018.00 1017.89 1017.85 1017.90 1018.02 1018.20 1018.40 1018.56 1018.67 1018.72 1018.72 1018.69 1018.66 1018.67 1018.72 1018.81 1018.93 1019.03 1019.10 1019.11 1019.06 1018.95 1018.83 1018.71 1018.64 1018.62
1016.80 1017.56 1018.30 1018.89 1019.26 1019.32 1019.05 1018.47 1017.66 1016.75 1015.88 1015.20 1014.79 1014.71 1014.95 1015.44 1016.07 1016.74 1017.33 1017.77 1018.02 1018.10 1018.06 1017.97 1017.89 1017.88 1017.96 1018.13 1018.35 1018.59 1018.79 1018.93 1019.00 1019.02 1019.00 1018.99 1019.01 1019.07 1019.19 1019.32 1019.44 1019.53 1019.55 1019.50 1019.39 1019.26 1019.13 1019.03 1019.00
1016.81 1017.67 1018.48 1019.13 1019.50 1019.52 1019.17 1018.48 1017.56 1016.53 1015.57 1014.81 1014.35 1014.25 1014.50 1015.01 1015.69 1016.39 1017.03 1017.51 1017.81 1017.93 1017.94 1017.89 1017.87 1017.91 1018.05 1018.28 1018.56 1018.84 1019.08 1019.26 1019.35 1019.39 1019.38 1019.38 1019.42 1019.50 1019.63 1019.78 1019.93 1020.03 1020.07 1020.04 1019.94 1019.80 1019.65 1019.54 1019.48
1016.77 1017.68 1018.54 1019.20 1019.55 1019.53 1019.12 1018.35 1017.35 1016.25 1015.23 1014.42 1013.94 1013.83 1014.08 1014.61 1015.31 1016.05 1016.71 1017.23 1017.57 1017.75 1017.82 1017.83 1017.88 1017.99 1018.19 1018.48 1018.81 1019.14 1019.42 1019.63 1019.75 1019.80 1019.81 1019.82 1019.86 1019.96 1020.10 1020.28 1020.45 1020.59 1020.65 1020.64 1020.56 1020.42 1020.26 1020.13 1020.05
1016.63 1017.55 1018.40 1019.04 1019.36 1019.30 1018.84 1018.04 1017.01 1015.89 1014.86 1014.06 1013.60 1013.51 1013.77 1014.32 1015.03 1015.78 1016.47 1017.02 1017.40 1017.63 1017.75 1017.83 1017.94 1018.12 1018.38 1018.72 1019.10 1019.46 1019.78 1020.01 1020.15 1020.21 1020.23 1020.25 1020.31 1020.42 1020.58 1020.78 1020.98 1021.14 1021.24 1021.26 1021.20 1021.07 1020.92 1020.77 1020.66
1016.36 1017.24 1018.03 1018.61 1018.88 1018.78 1018.30 1017.50 1016.49 1015.43 1014.46 1013.73 1013.33 1013.29 1013.60 1014.16 1014.89 1015.66 1016.36 1016.92 1017.33 1017.60 1017.77 1017.90 1018.07 1018.30 1018.61 1018.98 1019.39 1019.78 1020.12 1020.36 1020.51 1020.59 1020.62 1020.66 1020.72 1020.84 1021.02 1021.24 1021.47 1021.66 1021.79 1021.84 1021.81 1021.71 1021.56 1021.40 1021.27
1015.95 1016.74 1017.42 1017.91 1018.10 1017.96 1017.48 1016.72 1015.80 1014.85 1014.00 1013.40 1013.11 1013.16 1013.52 1014.13 1014.87 1015.64 1016.34 1016.92 1017.35 1017.64 1017.85 1018.03 1018.23 1018.50 1018.85 1019.25 1019.67 1020.07 1020.41 1020.67 1020.83 1020.92 1020.96 1021.01 1021.09 1021.22 1021.41 1021.64 1021.89 1022.10 1022.26 1022.35 1022.34 1022.26 1022.13 1021.98 1021.83
1015.43 1016.08 1016.62 1016.98 1017.08 1016.89 1016.43 1015.74 1014.94 1014.13 1013.46 1013.01 1012.86 1013.02 1013.46 1014.10 1014.87 1015.64 1016.34 1016.92 1017.36 1017.68 1017.92 1018.14 1018.39 1018.69 1019.06 1019.48 1019.91 1020.32 1020.66 1020.92 1021.09 1021.19 1021.25 1021.31 1021.40 1021.55 1021.74 1021.98 1022.23 1022.46 1022.64 1022.75 1022.77 1022.71 1022.60 1022.46 1022.32
Thickness
5795 5799 5799 5786 5765 5753 5750 5760 5769 5770 5772 5781 5785 5781 5769 5762 5753 5742 5764 5777 5776 5773 5770 5769 5768 5768 5768 5768 5768 5767 5767 5766 5765 5765 5764 5764 5763 5763 5763 5763 5762 5762 5762 5762 5761 5761 5762 5762 5762
5795 5799 5790 5773 5751 5740 5744 5760 5762 5768 5776 5783 5783 5779 5769 5762 5765 5762 5767 5773 5774 5772 5768 5766 5766 5766 5766 5766 5765 5765 5764 5764 5763 5763 5762 5762 5761 5761 5761 5761 5760 5760 5760 5759 5759 5760 5760 5760 5760
5794 5795 5776 5762 5750 5743 5744 5759 5764 5773 5780 5779 5773 5773 5765 5758 5763 5763 5769 5773 5772 5769 5765 5764 5763 5763 5763 5763 5763 5762 5762 5762 5761 5761 5760 5760 5760 5759 5759 5759 5758 5758 5758 5758 5758 5758 5758 5758 5759
5789 5780 5772 5754 5744 5753 5759 5764 5770 5768 5773 5776 5771 5761 5760 5766 5766 5767 5772 5772 5770 5766 5763 5761 5762 5762 5761 5761 5760 5760 5760 5760 5759 5759 5758 5758 5758 5757 5757 5757 5757 5757 5756 5756 5756 5756 5756 5757 5757
5784 5767 5751 5744 5746 5757 5767 5772 5772 5764 5763 5766 5764 5750 5748 5762 5768 5770 5770 5770 5767 5765 5762 5760 5760 5760 5759 5759 5758 5758 5758 5757 5757 5757 5757 5756 5756 5756 5756 5755 5755 5755 5755 5755 5755 5755 5755 5755 5756
5765 5759 5739 5735 5743 5755 5764 5772 5771 5762 5760 5761 5758 5748 5744 5759 5763 5766 5768 5768 5767 5765 5762 5759 5758 5758 5757 5757 5757 5756 5756 5756 5756 5756 5755 5755 5755 5755 5754 5754 5753 5753 5753 5753 5753 5753 5753 5754 5754
5754 5747 5739 5739 5739 5744 5756 5769 5765 5759 5757 5760 5761 5745 5743 5753 5761 5766 5767 5767 5766 5765 5763 5760 5758 5757 5757 5756 5756 5755 5755 5755 5755 5755 5755 5755 5754 5754 5753 5752 5752 5752 5752 5752 5752 5752 5752 5752 5753
5761 5747 5740 5739 5736 5737 5756 5765 5765 5761 5757 5768 5767 5746 5739 5752 5763 5766 5766 5766 5765 5765 5764 5762 5760 5758 5757 5756 5755 5755 5755 5755 5755 5755 5755 5755 5754 5754 5753 5752 5751 5751 5751 5751 5751 5751 5751 5751 5752
5762 5738 5728 5733 5736 5740 5756 5757 5761 5768 5763 5763 5764 5757 5754 5760 5763 5760 5760 5760 5760 5762 5764 5763 5762 5761 5759 5758 5757 5756 5755 5755 5755 5755 5755 5755 5755 5754 5753 5752 5751 5750 5750 5750 5750 5750 5750 5750 5751
5751 5728 5731 5744 5749 5748 5754 5755 5757 5756 5750 5749 5751 5754 5758 5758 5758 5755 5753 5754 5755 5757 5762 5763 5763 5762 5760 5760 5757 5757 5757 5756 5756 5756 5756 5756 5756 5755 5754 5752 5751 5750 5750 5749 5750 5750 5750 5750 5750
5748 5734 5742 5749 5755 5756 5752 5752 5758 5750 5740 5745 5744 5748 5753 5754 5753 5753 5753 5754 5756 5758 5759 5762 5762 5761 5761 5759 5758 5757 5757 5757 5756 5756 5756 5756 5755 5754 5753 5751 5750 5750 5750 5749 5750 5750 5750 5751 5751
5745 5743 5747 5749 5755 5753 5751 5753 5750 5747 5747 5755 5755 5754 5753 5752 5752 5753 5752 5754 5755 5755 5757 5760 5762 5762 5761 5759 5758 5757 5756 5755 5754 5754 5755 5754 5753 5753 5752 5751 5750 5750 5749 5749 5749 5749 5749 5749 5749
5743 5743 5749 5752 5753 5752 5751 5747 5746 5746 5754 5758 5757 5754 5752 5752 5753 5755 5757 5757 5755 5754 5755 5758 5760 5761 5760 5757 5757 5755 5753 5753 5753 5752 5753 5752 5751 5750 5750 5749 5747 5747 5746 5746 5746 5746 5746 5745 5745
5744 5746 5747 5749 5750 5750 5744 5743 5744 5743 5753 5753 5752 5750 5751 5751 5753 5753 5755 5754 5754 5753 5754 5756 5758 5758 5758 5756 5755 5753 5752 5751 5750 5750 5751 5750 5749 5748 5746 5745 5744 5744 5743 5743 5743 5743 5742 5741 5740
5749 5739 5738 5743 5745 5745 5742 5730 5735 5745 5750 5748 5748 5748 5749 5750 5752 5752 5754 5754 5754 5754 5754 5754 5756 5756 5754 5752 5752 5751 5750 5749 5748 5747 5748 5747 5746 5745 5743 5742 5741 5741 5740 5739 5739 5738 5738 5737 5737
5740 5729 5720 5734 5742 5745 5733 5713 5732 5747 5746 5742 5744 5745 5745 5747 5750 5753 5755 5755 5755 5755 5753 5753 5755 5753 5751 5749 5749 5749 5747 5746 5745 5745 5744 5744 5743 5742 5740 5738 5738 5737 5736 5735 5734 5733 5731 5731 5731
5725 5715 5715 5727 5742 5743 5731 5716 5729 5745 5743 5739 5741 5742 5742 5743 5747 5751 5753 5754 5754 5754 5752 5751 5750 5748 5747 5747 5746 5746 5744 5744 5743 5742 5741 5740 5739 5738 5737 5735 5735 5733 5731 5730 5730 5728 5726 5725 5725
5714 5716 5717 5722 5736 5737 5727 5723 5731 5742 5742 5740 5739 5741 5741 5741 5744 5748 5751 5751 5753 5752 5751 5749 5747 5746 5745 5745 5744 5742 5741 5741 5740 5738 5737 5736 5735 5735 5733 5732 5731 5729 5727 5725 5724 5723 5723 5721 5721
5727 5721 5718 5726 5740 5734 5725 5724 5731 5741 5741 5738 5739 5742 5742 5742 5746 5748 5749 5749 5749 5749 5747 5745 5744 5743 5742 5740 5738 5736 5735 5736 5736 5735 5734 5733 5732 5731 5730 5729 5727 5725 5723 5721 5720 5719 5717 5716 5718
5727 5721 5719 5726 5738 5735 5726 5725 5735 5741 5742 5743 5743 5743 5742 5742 5743 5743 5745 5746 5745 5744 5743 5743 5742 5741 5739 5738 5737 5736 5734 5734 5733 5732 5731 5730 5728 5727 5727 5725 5723 5722 5720 5718 5716 5715 5712 5711 5713
5728 5724 5723 5721 5731 5735 5727 5719 5728 5739 5745 5746 5747 5746 5745 5742 5740 5741 5741 5741 5741 5740 5741 5741 5740 5739 5738 5737 5735 5734 5732 5730 5729 5728 5728 5727 5726 5725 5723 5722 5721 5719 5717 5714 5713 5711 5708 5705 5707
5720 5735 5733 5728 5719 5711 5721 5700 5721 5733 5735 5739 5742 5743 5742 5743 5742 5740 5739 5738 5739 5739 5740 5740 5739 5738 5736 5735 5732 5729 5725 5723 5725 5726 5726 5726 5724 5723 5721 5720 5719 5717 5715 5712 5711 5709 5707 5704 5700
5727 5739 5735 5731 5722 5714 5721 5708 5718 5734 5728 5734 5740 5742 5743 5744 5743 5740 5740 5739 5739 5739 5738 5738 5737 5736 5735 5734 5732 5728 5725 5725 5726 5726 5725 5724 5723 5721 5720 5718 5717 5715 5713 5710 5709 5707 5705 5702 5699
5738 5735 5732 5730 5721 5701 5721 5715 5715 5732 5735 5737 5742 5744 5744 5745 5744 5742 5741 5740 5738 5737 5736 5736 5734 5733 5733 5732 5731 5728 5725 5724 5722 5722 5721 5721 5720 5719 5718 5717 5715 5713 5711 5709 5707 5705 5703 5700 5698
5732 5716 5698 5693 5693 5702 5733 5724 5724 5746 5753 5750 5746 5746 5746 5745 5743 5740 5738 5736 5735 5734 5734 5733 5732 5729 5730 5731 5730 5728 5726 5724 5722 5721 5720 5719 5716 5715 5715 5714 5713 5711 5709 5707 5705 5703 5700 5698 5696
5726 5720 5696 5683 5689 5708 5730 5721 5735 5757 5760 5759 5755 5750 5747 5745 5743 5740 5738 5736 5734 5733 5733 5732 5730 5728 5728 5728 5727 5727 5726 5723 5722 5722 5720 5718 5716 5714 5714 5713 5711 5709 5707 5706 5703 5701 5699 5697 5695
5723 5720 5727 5712 5711 5707 5717 5729 5738 5755 5753 5753 5751 5748 5744 5744 5743 5741 5739 5737 5735 5733 5732 5732 5729 5727 5727 5726 5725 5724 5724 5722 5721 5720 5719 5717 5716 5714 5712 5711 5709 5707 5706 5704 5702 5699 5697 5695 5693
5736 5733 5723 5711 5697 5694 5711 5720 5723 5735 5741 5747 5747 5745 5744 5744 5743 5741 5740 5738 5736 5734 5733 5732 5730 5727 5726 5725 5724 5722 5721 5720 5719 5718 5716 5715 5714 5712 5711 5709 5707 5705 5704 5702 5699 5697 5695 5693 5692
5728 5727 5727 5723 5720 5703 5694 5711 5748 5745 5748 5747 5748 5748 5746 5744 5743 5741 5740 5739 5737 5736 5733 5731 5729 5727 5725 5724 5723 5720 5719 5718 5717 5715 5714 5713 5712 5711 5709 5707 5705 5703 5701 5699 5697 5694 5693 5691 5689
5740 5735 5731 5714 5716 5724 5711 5716 5759 5757 5756 5753 5751 5750 5749 5747 5745 5743 5740 5738 5736 5733 5731 5730 5729 5726 5724 5723 5722 5719 5717 5716 5714 5713 5712 5711 5710 5709 5707 5705 5703 5701 5698 5696 5694 5692 5690 5688 5685